Back to catalog

CZ-6A DEB

AliveSSO
NORAD 56616·DEBRIS·🇨🇳 China

Launched Nov 11, 2022 from Taiyuan Satellite Launch Center

Loading…

Next Passes (next 24 hours)

TLE

FreshSource: Space-Track

Epoch: Sep 13, 2026, 05:23 UTC

1 56616U 22151AEQ 26256.22443480  .00000170  00000-0  11429-3 0  9991
2 56616  98.8245 258.8126 0033259  55.4884 304.9421 14.12956502174909

Track CZ-6A DEB in real time with AllMySat

Download on the App Store